Volver al catálogo

NOAA 16 DEB

ActivoPO
NORAD 41198·DEBRIS·🇺🇸 United States

Lanzado Sep 21, 2000 desde Vandenberg Space Force Base

Loading…

Próximos Pases (próximas 24 horas)

TLE

ActualizadoSource: Space-Track

Época: Sep 13, 2026, 06:52 UTC

1 41198U 00055DB  26256.28632774  .00007523  00000-0  20444-2 0  9996
2 41198  98.9092  16.6098 0019986 241.6168 118.3008 14.47706394554531

Sigue NOAA 16 DEB en tiempo real con AllMySat

Download on the App Store